indice_tiempo,oferta_global_pib,oferta_global_importacion,oferta_global_total,demanda_global_consumo_priv,demanda_global_consumo_publico,demanda_global_ibif,demanda_global_ibif_construccion,demanda_global_ibif_equipo_durable_produccion,demanda_global_ibif_equipo_durable_produccion_nacional,demanda_global_ibif_equipo_durable_produccion_importado,dg_ibif_equipo_durable_prod_maquinaria_equipo_total,dg_ibif_equipo_durable_prod_maquinaria_equipo_nacional,dg_ibif_equipo_durable_prod_maquinaria_equipo_importado,dg_ibif_equipo_durable_prod_material_transporte_total,dg_ibif_equipo_durable_prod_material_transporte_nacional,dg_ibif_equipo_durable_prod_material_transporte_importado,demanda_global_exportacion,demanda_global_total,discrepancia_estadistica_variacion_existencias
1993-01-01,212626.89410470155,20023.2,232650.09410470157,148624.27746710213,28003.235365180382,37659.2923795471,24402.59327817322,13256.699101373877,8756.588690396413,4500.110410977465,9470.250904187953,5986.141636713575,3484.1092674743777,3786.448197185926,2770.4470536828385,1016.0011435030872,15190.24,232650.09410470157,3173.048892871948
1993-04-01,241255.2792388469,20056.4,261311.6792388469,165206.6559662408,32376.06941199944,44292.87994960654,27528.29907356879,16764.580876037755,11287.128955358286,5477.451920679467,11674.02659672628,7333.720586774265,4340.3060099520135,5090.5542793114755,3953.408368584022,1137.1459107274536,17222.8,261311.6792388469,2213.273911000124
1993-07-01,243494.2296494874,23100.8,266595.0296494874,168095.09554833794,33095.93058005585,47947.31442336086,29042.119932452195,18905.194490908667,12119.663589752732,6785.530901155936,12647.644792743087,7785.317006028056,4862.32778671503,6257.5496981655815,4334.346583724676,1923.203114440906,16767.2,266595.0296494874,689.4890977327559
1993-10-01,248643.51949803144,24930.0,273573.51949803147,172776.14440444033,34335.63245318121,50378.170459481196,30172.794008796624,20205.376450684565,12311.380282793172,7893.996167891394,13654.047897400002,7785.740019891411,5868.30787750859,6551.328553284565,4525.640262901761,2025.6882903828039,16183.6,273573.51949803147,-100.02781907127246
1994-01-01,235083.1147970914,27278.4,262361.5147970914,168054.3412343893,30417.91421376974,45165.96218877132,26918.12699248974,18247.835196281587,9875.920930677392,8371.914265604195,13089.876554080223,6456.648601233043,6633.22795284718,5157.958642201362,3419.272329444348,1738.686312757014,16188.0,262361.5147970914,2535.2971601610484
1994-04-01,263684.4133504737,25831.04,289515.45335047366,182887.11143125148,34286.35853194421,51438.260275922956,30788.052525878324,20650.207750044632,12164.122528603748,8486.085221440882,14096.810360191748,7538.50764139396,6558.302718797788,6553.397389852882,4625.614887209789,1927.7825026430933,20225.2,289515.45335047366,678.5231113549999
1994-07-01,260869.63111863026,27639.2,288508.83111863025,182199.90691740092,34670.07877348444,53490.28256008156,31416.792632383647,22073.489927697916,12791.458221434546,9282.03170626337,13828.718429328608,7569.9312570583315,6258.787172270276,8244.771498369308,5221.526964376215,3023.244533993093,20438.4,288508.83111863025,-2289.8371323366882
1994-10-01,270122.67816222075,28451.2,298573.87816222076,186886.44939899456,36419.11477403387,55229.08642700539,33012.5470589636,22216.539368041795,12551.268831952937,9665.270536088858,14380.944774742573,7672.849405399092,6708.095369343481,7835.59459329922,4878.4194265538445,2957.175166745376,20688.8,298573.87816222076,-649.5724378130581
1995-01-01,250405.94623877716,28810.028000000002,279215.9742387772,175503.33732815448,30046.70026112864,47326.34595876052,29393.32228916997,17933.02366959054,10091.554656776407,7841.469012814134,12438.099888748427,6606.565048166946,5831.534840581481,5494.92378084211,3484.989608609459,2009.9341722326521,22824.827999999998,279215.9742387772,3514.762690733547
1995-04-01,261602.91800764075,24070.4,285673.3180076408,177122.90171719083,34863.16087469798,45465.86011178194,29006.238706948665,16459.621404833277,10059.805594299058,6399.815810534219,11673.677579239808,6897.731836580503,4775.945742659306,4785.943825593467,3162.073757718555,1623.870067874913,28849.68,285673.3180076408,-628.2846960299794
1995-07-01,256868.3397346973,24906.04,281774.3797346973,174711.35177574446,34439.90545670648,46133.55168812467,29361.394249184425,16772.157438940245,10140.105845718144,6632.051593222101,11734.06307862746,7102.719868236385,4631.343210391075,5038.094360312784,3037.385977481759,2000.7083828310253,24827.616,281774.3797346973,1661.9548141216728
1995-10-01,263250.33615222375,26365.6,289615.93615222373,180296.82102418985,38433.56972902814,46214.56310128533,29051.597592426013,17162.965508859314,9702.685884071261,7460.279624788053,12874.642140155875,7028.300283416531,5846.341856739344,4288.32336870344,2674.3856006547308,1613.9377680487091,23412.004,289615.93615222373,1258.978297720416
1996-01-01,251199.98867648814,28238.4,279438.3886764882,175650.17122947762,30186.771827315446,42998.60764516037,27554.219133632636,15444.388511527733,8523.55721680721,6920.831294720522,11606.668857297767,6401.912423410756,5204.7564338870125,3837.719654229966,2121.6447933964555,1716.07486083351,24115.2,279438.3886764882,6487.637974534689
1996-04-01,280167.13644574623,28113.2,308280.33644574624,186793.53766352858,34374.10215746905,48636.214648714675,29630.407016670822,19005.807632043856,10772.502263030898,8233.30536901296,13299.01849556457,7678.355227158188,5620.66326840638,5706.789136479288,3094.1470358727083,2612.642100606579,30376.4,308280.33644574624,8100.081976033936
1996-07-01,274502.346767011,32197.6,306699.94676701096,188046.51233467326,34055.39870465312,51761.43258162133,31438.906569644158,20322.526011977177,11218.140002897988,9104.386009079188,14188.64329907022,7889.536595031161,6299.106704039059,6133.882712906955,3328.603407866826,2805.2793050401287,30116.8,306699.94676701096,2719.803146063259
1996-10-01,282729.5593559781,32044.4,314773.9593559781,195458.3928809478,37476.86532683826,53446.18958703743,32516.834905348496,20929.354681688932,10975.663669044727,9953.691012644205,15378.292027292362,7901.167378606675,7477.124648685686,5551.06265439657,3074.496290438052,2476.5663639585187,28917.2,314773.9593559781,-524.6884388453655
1997-01-01,271260.4563091779,35041.2,306301.6563091779,190507.5387128146,30662.080504005007,48838.55638418286,29739.499950480542,19099.056433702317,9084.325477449147,10014.730956253172,13257.207229247175,6398.024598862359,6859.182630384817,5841.849204455143,2686.300878586788,3155.548325868355,28291.2,306301.6563091779,8002.280708175462
1997-04-01,299872.5387712239,35704.4,335576.93877122394,203332.64588818952,35561.48412687783,56683.09576904795,33777.41294965946,22905.682819388487,11346.451196668579,11559.23162271991,15546.920004304167,7738.847199639343,7808.072804664823,7358.762815084323,3607.6039970292354,3751.1588180550875,32876.4,335576.93877122394,7123.312987108642
1997-07-01,298264.99150864227,39473.6,337738.59150864225,207526.2368340083,35291.56028703501,59570.14638689956,35349.640523080016,24220.50586381954,11594.823314485668,12625.682549333875,16884.936004351035,7790.980798242186,9093.955206108849,7335.569859468508,3803.842516243482,3531.727343225026,32152.0,337738.59150864225,3198.648000699366
1997-10-01,302037.5227291263,39435.6,341473.1227291263,210747.64552974573,39783.652382355416,61816.80195630416,36565.91745275751,25250.88450354666,12070.914090244718,13179.97041330194,18102.867957871003,8389.878087145957,9712.98987072505,7148.016545675651,3681.036003098761,3466.9805425768905,30394.0,341473.1227291263,-1268.9771392789992
1998-01-01,282764.23229856783,39584.0,322348.23229856783,196934.79187843372,32028.058025843377,56546.07322238633,33268.246895020064,23277.826327366267,10558.888021069874,12718.938306296392,16358.111614498262,7370.009179634355,8988.102434863908,6919.714712868003,3188.878841435519,3730.8358714324836,28976.0,322348.23229856783,7863.309171904401
1998-04-01,312129.1110330387,38944.0,351073.1110330387,211342.56177788938,38099.84681474981,61412.93279933223,35760.23622463812,25652.696574694106,12206.979242268551,13445.717332425556,17202.441232224955,8156.945367352394,9045.49586487256,8450.255342469152,4050.033874916157,4400.221467552995,35097.2,351073.1110330387,5120.569641067275
1998-07-01,305474.768316651,40452.8,345927.568316651,210764.1048928193,38978.226695814934,61583.611290583336,36874.51969192242,24709.091598660914,11699.221042975867,13009.870555685051,16247.83555354714,7805.484203700988,8442.351349846153,8461.256045113776,3893.7368392748785,4567.5192058388975,32486.4,345927.568316651,2115.225437433415
1998-10-01,295425.32256857597,35688.4,331113.722568576,206693.74133972166,40305.51310229326,58838.258894895334,36226.02186198434,22612.23703291099,10816.641285969154,11795.595746941839,15670.142976717114,7292.583353433581,8377.559623283534,6942.094056193877,3524.0579325355725,3418.036123658304,27989.2,331113.722568576,-2712.9907683342644
1999-01-01,270746.3896189359,32966.4,303712.7896189359,192978.1328370085,33985.71418426353,47344.32429856899,29594.3508751728,17749.973423396186,8561.831956506057,9188.14146689013,12644.02643734002,6173.209243598419,6470.817193741601,5105.9469860561685,2388.6227129076387,2717.3242731485298,25699.2,303712.7896189359,3705.418299094872
1999-04-01,288829.85593614774,30180.8,319010.6559361477,200219.83125204986,38793.286419189935,51343.36937165416,32336.31583513264,19007.05353652152,9275.999641709135,9731.053894812381,12742.905374126021,6188.943029447571,6553.96234467845,6264.148162395497,3087.0566122615646,3177.091550133932,29669.2,319010.6559361477,-1015.0311067462353
1999-07-01,285087.02139066823,34117.2,319204.22139066824,199755.7912585712,40161.77550881737,52337.05389369439,31375.19809085143,20961.85580284296,10094.135154048521,10867.720648794437,13160.020936811517,5751.107356473064,7408.913580338452,7801.834866031442,4343.027797575457,3458.8070684559843,27995.2,319204.22139066824,-1045.5992704147247
1999-10-01,289428.82897694776,33786.4,323215.2289769478,202524.06161657546,42693.06676271471,53270.86199044036,32689.013478704517,20581.848511735843,10423.504182995364,10158.344328740477,13681.492182924178,6191.769392421246,7489.722790502931,6900.356328811663,4231.734790574118,2668.621538237545,28085.6,323215.2289769478,-3358.3613927827464
2000-01-01,270444.298062085,33689.80734386583,304134.1054059508,192586.81168327993,34452.332541038966,43876.81176481922,27734.198888277657,16142.612876541561,7996.163320091347,8146.449556450218,11290.227911841985,5070.703249569656,6219.524662272329,4852.38496469958,2925.460070521691,1926.9248941778892,28513.25041261556,304134.1054059508,4704.89900419713
2000-04-01,291796.00444679364,31977.11212088037,323773.11656767403,198553.18100817775,39509.94486208102,45878.76994588532,28726.551201863935,17152.218744021382,8663.432884995196,8488.785859026186,12097.483565109516,5815.914829663266,6281.568735446251,5054.735178911867,2847.5180553319306,2207.217123579936,33649.64920820855,323773.11656767403,6181.5715433213845
2000-07-01,287495.64239376097,33639.7809121869,321135.42330594786,198804.71651492643,40741.53564881667,46781.05799091761,29105.80684937028,17675.251141547327,8243.314574859141,9431.936566688186,12914.241200130695,5403.608378748197,7510.632821382499,4761.00994141663,2839.706196110944,1921.3037453056859,31469.09172191128,321135.42330594786,3339.0214293758618
2000-10-01,287079.0123558477,32973.8837601219,320052.8961159696,198232.00078258605,41996.94138710014,47543.82749517191,29881.404931237957,17662.42256393395,8710.805856158682,8951.616707775267,12739.771037745933,5990.803236781465,6748.9678009644695,4922.651526188014,2720.002619377217,2202.648906810797,31262.770412566693,320052.8961159696,1017.3560385447781
2001-01-01,263330.588686953,33370.58181639342,296701.1705033464,188763.3879718882,34667.696207979236,38817.558607231374,25235.155617822635,13582.40298940874,6479.973781413451,7102.429207995288,10191.112764866983,4753.719149624608,5437.393615242376,3391.290224541757,1726.254631788844,1665.0355927529129,29376.7142947919,296701.1705033464,5075.813421455714
2001-04-01,288026.07522980636,30109.311752412046,318135.3869822184,194426.9389251733,40132.09122502021,41613.57417718327,27354.824421604982,14258.74975557829,6809.406308382675,7449.343447195614,10616.191860749035,5113.915008270838,5502.276852478197,3642.557894829254,1695.4913001118362,1947.066594717418,34248.7531418853,318135.3869822184,7714.02951295633
2001-07-01,271367.22709885973,26455.003816325603,297822.23091518536,184502.66608389662,38921.385540707844,37900.29513453222,25686.559207467202,12213.735927065023,6047.032154900871,6166.703772164151,9196.682701956568,4508.016686307962,4688.666015648605,3017.053225108456,1539.0154685929092,1478.0377565155468,32188.59314230096,297822.23091518536,4309.291013747701
2001-10-01,252062.9443215473,20480.62977149621,272543.5740930435,172964.05601641326,38428.62295746201,34063.89243356026,23436.381592732978,10627.510840827279,6243.461086839454,4384.049753987825,8292.522768050363,4855.665086772162,3436.8576812782003,2334.9880727769164,1387.796000067292,947.1920727096245,28635.613024419272,272543.5740930435,-1548.610338811286
2002-01-01,237056.71988891807,27377.157752337353,264433.87764125544,163488.3879755063,31930.051070227804,25132.854032807136,16599.12070306697,8533.733329740167,5062.861007780646,3470.8723219595217,6328.6485707852235,3909.9527374900326,2418.695833295191,2205.084758954944,1152.9082702906132,1052.176488664331,49786.6728558559,264433.87764125544,-5904.0882931417145
2002-04-01,339008.20167956135,41499.94972759003,380508.15140715137,202315.1185315062,39052.780769520934,36788.32036383668,22628.264231857425,14160.056131979261,8713.035680646715,5447.020451332546,9879.318960922432,6815.056706645559,3064.2622542768727,4280.7371710568295,1897.978974001156,2382.758197055674,96116.92063504267,380508.15140715137,6235.011107244893
2002-07-01,334006.23084900866,48001.20403242964,382007.43488143827,202297.640085043,40250.61581688252,40326.07927199945,25237.269988250755,15088.809283748695,9272.078353473213,5816.730930275481,11894.36780911724,7579.845528197591,4314.52228091965,3194.441474631453,1692.232825275622,1502.2086493558309,106502.96925662716,382007.43488143827,-7369.869549113864
2002-10-01,340249.4230239817,50291.06490606203,390540.4879300437,205827.22665953176,41746.29623177565,47299.12155634917,27880.048254523663,19419.073301825512,12245.856888946551,7173.216412878959,13966.599976157417,9665.700574340404,4300.899401817013,5452.473325668093,2580.156314606147,2872.317011061946,102466.72389888932,390540.4879300437,-6798.880416502201
2003-01-01,327361.7670599568,48191.359760367195,375553.126820324,204531.25496737735,36433.28750578868,44272.47434619791,28348.477632918824,15923.996713279088,9115.039052377053,6808.957660902035,11553.965848284155,6955.207121926677,4598.758726357479,4370.030864994933,2159.831930450376,2210.1989345445563,92827.84697044414,375553.126820324,-2511.7369694840745
2003-04-01,399118.83668133535,50749.043647081504,449867.8803284168,248024.46457050898,43932.62319083856,53643.73465294221,34701.11332044347,18942.621332498744,11123.040855093583,7819.580477405161,13930.208443987958,8506.13600973206,5424.072434255898,5012.412888510786,2616.9048453615223,2395.5080431492634,103476.10163850882,449867.8803284168,790.9562756182713
2003-07-01,377887.2428274279,57599.3205102232,435486.56333765114,243150.8550184855,43551.55738495956,58616.53949566155,36816.55476992536,21799.984725736194,11359.487470780627,10440.497254955568,16022.136843612674,8477.603272728727,7544.533570883947,5777.847882123521,2881.884198051899,2895.963684071622,95709.24674524817,435486.56333765114,-5541.635306703654
2003-10-01,399269.59901787696,64702.64104640874,463972.2400642857,254559.65782761545,48069.50045639248,71080.56734107566,41433.78476134724,29646.782579728417,15594.826827533238,14051.955752195177,21919.492810781638,11307.468510846147,10612.024299935492,7727.289768946777,4287.358316687091,3439.9314522596856,97894.31615298845,463972.2400642857,-7631.801713786335
2004-01-01,392817.42999690253,71305.08175740468,464122.5117543072,252224.13669997774,41685.332040003756,71865.7039017624,42293.93735682117,29571.76654494123,11788.172846482465,17783.593698458764,19218.31533523214,8583.254708949415,10635.060626282724,10353.451209709092,3204.9181375330495,7148.533072176042,99465.19774688045,464122.5117543072,-1117.858634317163
2004-04-01,474213.08006317174,77251.80353778077,551464.8836009526,295795.4372812568,50209.361818704776,82186.08938774186,50541.667192096604,31644.422195645264,15071.475980026622,16572.946215618642,22156.692210894194,10867.79348321358,11288.898727680615,9487.729984751073,4203.682496813042,5284.04748793803,120133.00128345516,551464.8836009526,3140.9938297939807
2004-07-01,452079.6638408465,88019.7431847101,540099.4070255565,284882.6287581003,51751.932733544585,89812.75783574255,52326.32091993772,37486.43691580482,15816.07156389988,21670.365351904944,25829.27958707568,11642.623207127977,14186.656379947706,11657.157328729143,4173.448356771904,7483.708971957239,119915.2881350976,540099.4070255565,-6263.200436928513
2004-10-01,471463.52866644267,92356.54654645047,563820.0752128931,291853.7065892618,55655.50025373367,99336.94036435112,56927.72492023043,42409.21544412069,19369.080283120384,23040.135161000304,30261.090306404323,14248.335875011664,16012.754431392661,12148.125137716359,5120.744408108718,7027.380729607641,120787.95631501498,563820.0752128931,-3814.0283094685005
2005-01-01,456763.7385714037,89083.19200321658,545846.9305746203,290045.6950671442,51459.83279676302,88857.00688729814,53892.04933540389,34964.95755189425,14273.4508345782,20691.506717316046,24274.94548754637,9941.994161026296,14332.951326520077,10690.012064347873,4331.456673551904,6358.55539079597,115060.24843759226,545846.9305746203,424.1473858226673
2005-04-01,552411.8296739411,105213.05556943415,657624.8852433753,342216.14007284923,62076.23035280825,112162.04222832216,68242.68568975014,43919.35653857203,18442.8152794809,25476.54125909113,27882.059931223608,12837.206609320114,15044.853321903494,16037.29660734842,5605.608670160786,10431.687937187635,137065.6306584568,657624.8852433753,4104.841930938885
2005-07-01,544228.1668656137,103016.59030817721,647244.7571737908,330612.2253969823,67659.63852141246,118354.78092014146,72009.98678816397,46344.79413197749,19370.49198565056,26974.302146326932,32224.68416805117,13629.386296750508,18595.297871300663,14120.109963926318,5741.105688900048,8379.00427502627,140593.10195750603,647244.7571737908,-9974.989622251393
2005-10-01,574351.1540746599,110976.09467439642,685327.2487490564,342228.48417194985,72241.55697359447,137155.91250671423,81662.25489305204,55493.657613662195,25265.032175363092,30228.625438299103,36419.76404540689,17408.79788723225,19010.96615817464,19073.893568255306,7856.234288130842,11217.659280124462,140665.18209238633,685327.2487490564,-6963.886995588517
2006-01-01,567994.3157069552,108004.9776469137,675999.2933538689,351381.7829625237,68040.02187813545,122263.32415944524,75508.13511861916,46755.18904082608,18279.042018167416,28476.14702265866,31301.020515548527,11978.757201610028,19322.2633139385,15454.16852527755,6300.28481655739,9153.883708720161,135608.0316919806,675999.2933538689,-1293.8673382161069
2006-04-01,678278.4752845393,120286.53502326657,798565.0103078057,400550.94123491336,81632.2474681437,150852.93749964738,98511.20913604627,52341.7283636011,22353.326281997495,29988.4020816036,34835.28116871063,15453.268696471858,19382.012472238774,17506.44719489046,6900.057585525637,10606.389609364825,164244.70872945586,798565.0103078057,1284.1753756454273
2006-07-01,668197.2291645939,136003.63847561082,804200.8676402046,389368.47370964196,84034.25886823866,165464.1452414273,103199.61077349432,62264.534467932965,24193.07740183921,38071.45706609375,40900.56434517629,16849.755622122346,24050.80872305394,21363.97012275668,7343.321779716865,14020.648343039815,169101.20771388593,804200.8676402046,-3767.217892989109
2006-10-01,703285.9208384989,139156.07442632198,842441.9952648209,403918.1290533507,91283.66489012087,172770.28566954157,106873.12007894898,65897.16559059257,31439.352713717177,34457.81287687539,44498.24224569989,21695.78973992026,22802.452505779635,21398.923344892668,9743.562973796916,11655.360371095754,179187.94216809332,842441.9952648209,-4718.026516285579
2007-01-01,681119.8544737429,135292.7407630471,816412.59523679,423408.80352846405,84480.89196436307,156033.5777169063,95985.01181396688,60048.565902939416,22348.544230140447,37700.02167279897,39620.38663184353,14692.362226069314,24928.02440577422,20428.179271095883,7656.182004071134,12771.997267024748,159333.0413437337,816412.59523679,-6843.719316677074
2007-04-01,835125.2703123351,150034.97040670767,985160.2407190428,486373.22189292975,105795.03690450745,186946.3345498442,122450.26190351433,64496.07264632988,26844.59737402296,37651.47527230692,43873.66470358097,18496.903128041966,25376.76157553901,20622.407942748905,8347.694245981,12274.713696767907,191415.0844703231,985160.2407190428,14630.562901438214
2007-07-01,827463.2647056922,184708.61875474488,1012171.8834604371,486633.3660756082,108535.58985203523,212071.67776165053,130208.73851803965,81862.93924361088,29490.02194690636,52372.917296704516,54694.06798376929,20301.594324133523,34392.47365963577,27168.87125984158,9188.427622772835,17980.443637068747,206010.50375648716,1012171.8834604371,-1079.2539853440248
2007-10-01,906114.9235687553,190884.33151893294,1096999.255087688,507090.22863323346,121242.33652818392,231436.5364434215,142389.72150903568,89046.81493438582,39988.53379884204,49058.28113554379,58111.43806582839,26973.84654095713,31137.591524871266,30934.994064667444,13014.304453994931,17920.689610672514,243560.63259819394,1096999.255087688,-6330.4791153447
2008-01-01,887643.0107787097,187116.57255907616,1074759.583337786,531091.7321113788,108045.82436033872,213774.11850457676,125830.95157769638,87943.16692688038,29327.720910344382,58615.446016536,54005.172853279255,19388.78254486786,34616.39030841139,33937.99407360113,9938.93836547652,23999.0557081246,225778.69312475974,1074759.583337786,-3930.784763268137
2008-04-01,1107942.8403520286,220206.55165329712,1328149.3920053258,625672.810437024,143113.97113364405,240131.64520800853,156914.07464407047,83217.57056393806,31527.931864559054,51689.638699379015,54519.8003143477,20165.02807245903,34354.77224188868,28697.770249590365,11362.903792100025,17334.866457490338,248139.4673812504,1328149.3920053258,71091.49784539873
2008-07-01,1057550.793494556,231115.27073335505,1288666.0642279112,614285.0616131425,147871.13149393894,255835.3928324222,157557.17883614867,98278.21399627352,37179.05366679408,61099.16032947943,65196.00349954237,25174.004253707255,40021.999245835126,33082.21049673114,12005.049413086828,21077.161083644307,292358.4217931429,1288666.0642279112,-21683.94350473536
2008-10-01,1077896.38918338,214637.5017508113,1292533.8909341912,608998.12352074,156277.11740779012,252201.85154055743,160726.00070334462,91475.85083721281,41048.023292794554,50427.82754441825,60145.08569531514,29476.970387459038,30666.996545990416,31330.445746799083,11571.76136434808,19760.830998427828,244810.8173155027,1292533.8909341912,30245.981149600906
2009-01-01,992962.248598719,155498.60986704618,1148460.8584657651,605821.9005304554,141749.12448645334,207355.24402100046,137328.7192555962,70026.52476540426,32342.883737020442,37683.64102838383,51519.48173689848,23164.50975278084,28354.97198411764,18507.04302850579,9178.3739842396,9328.669044266186,197583.54339732314,1148460.8584657651,-4048.9539694672276
2009-04-01,1195372.4388149024,168966.20832161137,1364338.6471365138,686632.0414329928,178130.82015055366,238400.00638283778,162078.80689986967,76321.1994829681,35557.6281485974,40763.571334370696,52452.05516136151,27149.728726122175,25302.326435239338,23869.144321606596,8407.899422475237,15461.244899131358,263084.6232219932,1364338.6471365138,-1908.8440518635907